User: anonymous   Login
Location: Axtheid
(49.6213°N, 11.8205°E)
Time: 02:30:17
(UTC+00:00)
Language:

Cosmos 923 Rocket - Orbit

View from above orbital plane
View from above orbital plane
View from above satellite
View from above satellite

Ground track
Ground track

The orbit data is extracted from the following two-line orbital elements,

1 10121U 77059B   21106.35761234  .00000115  00000-0  48454-4 0  9990
2 10121  74.0462  85.2399 0017630  92.2592 268.0580 14.35982006290448
Epoch (UTC): 16 April 2021 08:34:57
Eccentricity: 0.0017630
inclination: 74.0462°
perigee height: 759 km
apogee height: 784 km
right ascension of ascending node: 85.2399°
argument of perigee: 92.2592°
revolutions per day: 14.35982006
mean anomaly at epoch: 268.0580°
orbit number at epoch: 29044

The dashed part of the orbit path shows where the satellite is in the earth's shadow,  

DLR